星链-4480 (STARLINK-4480 )

导读

STARLINK-4480是美国太空探索技术公司(SpaceX)星链(Starlink)星座中的一员,星链项目旨在构建全球卫星互联网星座,为全球提供高速宽带互联网服务。该卫星于2022年8月10日发射升空,被部署到近地轨道,属于星链星座组网的组成部分,承担星座中数据通信相关功能,助力提升星链系统的覆盖与服务能力。

基本信息
目录编号:
53416
目录名称:
STARLINK-4480
国际标识:
2022-097AE
轨道中心:
EARTH
卫星名称:
星链-4480
卫星全名:
星链-4480 (STARLINK-4480 )
卫星状态:
在轨 (已飞行1407 天)
发射日期:
2022-08-10 UTC
国别 :
美国 (US)
星等 :
--
轨道信息
数据来源 国际轨道数据
星历时间: 2026-06-17T05:41:58+0800
12小时前
查看轨道信息
半长轴: 6917.933km
偏心率: 0.0001504
轨道倾角: 53.160°
近地点辐角 97.263°
升交点赤经 28.586°
平近点角 262.853°
近地点: 538.755km
远地点: 540.837km
周期: 95.439分钟
每日圈数: 15.088231
详细信息
固有亮度:
5
最大亮度:
2.5
卫星平台:
Starlink v1.5
覆盖范围:
全球
运营商:
太空探索技术公司
运营商所在国:
美国
制造商(研发单位):
太空探索技术公司
制造商所在国:
美国
使用方式:
暂无
卫星简介
星链(Starlink)计划是由太空探索技术公司(SpaceX)提出的一个巨型低轨卫星互联网星座项目,计划在2019年至2024年间在太空搭建由约1.2万颗卫星组成的“星链”网络,其中1584颗将部署在地球上空550千米处的近地轨道,并从2020年开始工作。该卫星仍在工作。
2D轨道图
3D轨道图
轨道高度分析图
轨道倾角分析图
轨道综合分析图
查看轨道综合分析图